Location: Unspecified
(0.0000°N, 0.0000°E)
Time: 13:44:58
(UTC+00:00)

N. Korean satellite - Pass Details

Date: 03 April 2020
Orbit: 454 x 507 km, 97.2° (Epoch: 01 April)

Event Time Altitude Azimuth Distance (km) Brightness Sun altitude
Rises 04:32:50 0° 44° (NE) 2,455 10.9 -22.5°
Reaches altitude 10° 04:35:49 10° 74° (ENE) 1,592 10.3 -21.8°
Maximum altitude 04:37:23 13° 102° (ESE) 1,439 9.9 -21.4°
Drops below altitude 10° 04:38:57 10° 129° (SE) 1,603 9.8 -21.0°
Sets 04:41:57 0° 158° (SSE) 2,491 10.4 -20.2°
